Probability
0 0 0 0 0 0 0 0 0 0 0 0 0 0 0 0 0 0 0 0 2 4 2 1 2 4 9 14 18 16 11 8 7 4 2 0 0 0 0 0 0 0 0 0 0 0 0 0 0
0 0 0 0 0 0 0 0 0 0 0 0 0 0 0 0 0 0 0 1 3 6 6 3 3 6 11 15 19 19 14 10 8 6 3 1 0 0 0 0 0 0 0 0 0 0 0 0 0
0 0 0 0 0 0 0 0 1 1 1 0 0 0 1 2 2 1 1 2 5 8 8 7 5 7 11 14 17 18 15 12 10 8 6 3 1 0 0 0 0 0 0 0 0 0 0 0 0
0 0 0 0 0 0 0 0 1 2 2 1 0 2 5 6 5 4 5 5 7 8 8 8 8 8 9 11 13 13 12 11 11 10 7 4 1 0 0 0 0 0 0 0 0 0 0 0 0
0 0 0 0 0 1 1 1 1 2 2 1 1 4 9 11 10 9 8 7 8 8 8 9 10 10 9 9 10 10 10 10 10 9 8 5 2 2 1 1 1 0 0 0 0 0 0 0 0
0 0 0 0 2 4 4 3 2 3 2 2 3 7 11 14 14 13 11 8 8 8 8 9 10 11 11 12 13 13 12 11 11 10 8 5 4 5 4 3 2 1 0 0 0 0 0 0 0
0 0 0 1 3 5 4 3 3 4 4 5 6 10 14 17 17 16 13 11 8 7 7 8 8 8 10 13 16 17 17 15 14 13 10 7 5 5 5 4 3 2 1 0 0 0 0 0 0
0 0 0 1 3 5 4 3 5 7 9 11 12 14 19 23 21 18 17 15 12 10 9 8 5 5 7 10 16 20 19 18 16 15 13 9 5 2 2 3 4 4 2 0 0 0 0 0 0
0 0 1 1 3 4 3 4 7 10 13 15 18 22 27 28 24 21 21 21 20 18 16 11 8 7 7 10 16 18 17 16 14 12 11 8 4 2 2 4 5 4 2 1 0 0 0 0 0
1 1 2 2 2 3 3 6 9 10 12 15 22 28 30 27 23 21 23 26 27 25 21 16 14 12 12 15 18 17 15 14 13 11 9 8 6 4 4 4 3 2 2 1 1 1 1 1 1
2 2 3 3 2 3 5 8 11 11 12 15 20 27 28 23 18 19 24 28 29 25 20 17 17 18 19 21 22 21 20 19 18 15 11 10 8 5 4 3 3 3 3 3 3 3 3 3 3
2 3 4 4 4 4 6 11 14 14 15 16 17 22 24 19 14 15 21 25 25 22 18 17 18 20 25 27 26 25 25 24 22 18 14 11 9 6 5 4 5 6 6 4 4 5 6 5 5
1 4 6 6 6 5 6 10 13 15 16 17 16 18 20 15 11 12 15 17 19 20 19 18 19 22 26 30 29 27 27 26 25 21 17 13 11 9 7 8 8 8 7 5 4 5 6 6 6
2 4 6 6 5 4 5 8 10 12 14 15 16 16 15 12 10 11 12 13 15 18 20 19 20 24 27 30 29 27 27 28 25 22 19 15 12 10 10 10 9 7 6 5 3 2 4 6 6
1 3 5 5 3 1 2 6 8 10 13 14 14 14 12 9 9 11 12 12 13 16 19 19 20 23 26 27 26 24 25 25 23 21 21 17 12 11 13 12 9 7 5 4 4 4 5 6 6
0 1 2 2 1 0 1 3 6 9 11 14 13 11 9 8 9 10 12 12 13 15 17 18 18 20 22 22 21 19 20 20 18 19 20 17 12 12 14 13 10 7 6 6 7 8 8 7 6
0 0 1 1 0 0 0 2 5 7 9 12 14 11 9 9 10 11 11 11 11 12 14 14 14 15 17 18 17 15 16 16 15 16 17 15 11 10 11 12 10 8 8 8 9 10 9 8 6
0 0 0 0 0 0 1 3 4 6 7 9 12 12 10 10 11 11 10 9 8 8 9 10 9 10 13 14 14 13 14 15 14 15 17 16 12 8 8 10 10 8 8 9 11 10 8 5 4
0 0 0 0 0 0 2 3 3 4 6 7 10 12 12 11 10 10 8 7 5 5 6 7 6 7 9 10 11 11 12 13 14 15 17 17 15 11 9 10 10 9 10 10 9 8 5 4 3
0 0 0 0 0 0 2 2 1 2 5 7 9 12 12 11 11 10 8 6 4 3 4 5 6 6 7 7 8 9 10 11 12 14 15 15 15 15 13 12 11 11 11 9 5 3 3 3 3
0 0 0 0 0 0 1 1 0 1 4 7 10 11 11 13 13 11 8 5 4 3 3 4 5 6 6 7 8 8 9 9 10 11 13 14 14 13 12 11 10 10 9 7 3 1 1 2 2
0 0 0 0 0 0 0 0 0 0 2 6 9 11 12 13 13 11 9 6 4 3 2 3 4 5 6 6 7 7 7 8 9 10 11 12 10 8 6 6 7 7 8 6 3 1 1 1 1
0 0 0 0 0 0 0 0 0 0 0 3 8 12 14 13 12 12 10 8 5 4 3 3 4 4 4 4 4 5 6 7 8 9 10 9 7 6 4 3 4 6 7 6 3 1 1 2 1
0 0 0 0 0 0 0 0 0 0 0 2 7 13 17 17 16 14 11 9 8 6 5 4 4 4 3 2 2 3 5 7 8 8 8 6 5 5 5 4 4 4 5 5 3 1 1 2 3
0 0 0 0 0 0 0 0 0 1 1 3 7 13 18 20 19 15 12 11 10 8 7 6 6 5 4 2 2 3 5 7 7 7 6 5 5 5 5 5 4 4 4 4 3 2 1 2 2
0 0 0 0 0 0 0 0 1 2 2 4 8 14 19 20 18 15 13 12 9 7 6 6 6 6 5 2 1 2 3 4 5 5 5 4 4 5 5 5 5 5 4 3 3 2 1 1 1
0 0 0 0 0 0 0 0 1 2 3 5 10 16 19 17 14 13 13 12 8 5 5 5 6 6 5 3 2 2 3 3 3 3 3 4 4 4 4 3 4 4 2 1 1 1 0 0 0
0 0 0 0 0 0 0 0 1 2 3 6 13 18 17 13 10 10 11 9 6 4 4 4 5 5 4 3 3 3 3 2 1 2 3 3 3 3 3 2 2 1 0 0 0 0 0 0 1
0 0 0 0 0 0 0 0 1 3 4 8 13 15 14 10 6 6 6 5 3 2 2 2 3 4 3 3 3 3 2 1 1 1 2 3 3 3 2 2 1 0 0 0 0 0 0 0 1
0 0 0 0 0 0 0 1 2 5 7 9 11 13 12 8 4 3 3 3 1 1 1 1 1 2 2 2 2 2 1 0 0 1 2 3 3 3 2 1 1 0 0 0 0 0 0 0 1
Wind_Speed
8 7 6 6 8 7 4 4 3 4 5 5 5 4 6 7 6 7 6 10 13 14 15 13 10 11 12 13 14 15 15 15 15 15 14 13 12 11 10 10 9 9 9 9 9 9 9 9 9
5 5 7 7 8 8 6 4 4 5 6 6 6 6 6 8 8 8 9 12 14 14 14 13 12 11 12 13 13 14 15 15 15 14 13 13 12 10 10 9 9 8 8 8 8 8 8 8 8
6 7 7 6 7 5 6 7 7 7 6 5 6 6 6 6 6 6 10 14 14 13 13 14 12 12 13 13 13 13 14 14 14 13 13 12 11 10 9 9 8 8 7 7 7 8 8 8 7
6 7 6 8 7 1 3 7 6 7 7 5 7 8 7 6 3 9 14 14 14 13 13 15 11 13 13 13 12 12 13 13 13 13 12 11 10 9 8 8 8 7 7 7 7 7 6 7 7
7 7 9 9 6 4 4 4 4 5 6 6 7 8 8 6 9 13 14 14 13 13 12 15 11 12 12 12 12 12 12 11 11 11 10 9 8 8 7 7 7 6 6 6 6 6 6 6 6
7 7 9 9 8 6 5 4 5 6 8 8 8 9 7 7 10 11 12 12 12 12 13 14 12 11 11 11 11 11 10 10 9 9 8 8 7 6 6 6 5 5 5 5 5 5 5 5 5
8 8 9 8 8 8 5 4 4 7 8 7 6 9 9 9 10 11 11 11 11 11 11 11 12 12 11 10 10 10 9 9 9 8 7 6 6 6 5 5 4 4 4 4 5 5 5 5 5
6 6 8 8 8 8 7 5 4 5 7 6 4 8 10 11 11 11 11 10 10 9 9 10 10 10 11 11 10 10 9 8 8 7 7 6 6 6 5 6 5 3 4 4 4 5 5 6 6
7 8 8 7 7 8 8 8 6 4 8 6 5 8 13 16 13 12 11 10 9 8 7 7 8 8 8 9 10 9 9 7 7 7 7 6 6 5 6 3 4 2 3 4 4 5 6 7 8
8 7 5 3 3 6 8 8 8 8 10 10 11 14 16 15 13 12 11 9 9 8 6 5 6 6 6 6 7 6 6 6 5 4 5 4 1 1 1 6 3 2 3 4 5 5 7 9 7
6 3 5 4 4 6 8 7 6 9 9 10 14 16 16 14 12 10 9 8 7 7 6 5 5 4 4 4 4 3 2 3 3 3 2 1 1 1 1 1 3 4 5 5 5 7 6 6 4
4 3 4 5 6 6 7 8 7 5 8 11 14 15 15 13 11 10 10 9 8 7 6 5 4 4 4 3 3 3 2 2 2 3 1 1 0 0 0 1 1 2 2 2 3 3 4 5 5
6 6 6 6 7 7 9 9 9 9 10 13 14 13 13 11 10 9 9 8 8 7 5 4 4 4 4 3 2 2 2 2 3 2 2 1 0 1 1 1 1 2 2 3 3 4 3 5 6
7 8 8 9 10 9 11 10 8 9 11 13 13 12 11 10 9 8 8 7 7 6 5 4 4 4 4 3 3 2 2 2 2 2 2 1 1 1 1 1 1 2 3 3 3 4 3 4 4
8 10 10 9 9 9 10 9 8 11 12 13 12 11 10 9 8 7 7 6 5 6 5 4 4 4 4 3 3 3 3 3 2 2 2 2 2 2 2 2 2 2 3 3 3 3 3 4 4
11 11 11 9 8 7 9 9 10 11 12 12 11 10 10 9 8 7 7 6 6 6 5 4 3 4 4 3 3 2 3 3 3 2 3 3 3 2 2 2 2 3 3 3 3 3 3 3 4
11 11 12 11 8 8 7 8 11 10 11 11 11 10 9 9 8 7 7 6 6 6 5 5 4 4 4 4 4 4 4 3 3 3 3 4 4 4 2 2 3 3 2 2 3 2 3 3 3
11 11 10 10 9 9 7 8 11 10 10 10 10 10 9 8 7 7 6 5 5 5 5 5 5 4 3 3 3 3 4 3 3 4 4 4 4 4 3 2 3 3 2 2 3 3 3 3 3
6 8 9 7 6 7 7 8 10 11 11 11 10 10 9 8 7 7 6 5 5 5 4 4 4 4 2 1 2 2 2 2 3 4 5 5 5 4 3 3 2 3 2 3 4 4 3 3 3
8 9 9 7 6 4 6 6 9 11 12 11 11 10 9 9 8 6 5 5 5 5 4 4 4 4 2 2 2 2 2 2 3 3 4 5 4 4 3 3 3 3 2 3 4 4 4 3 2
8 8 8 8 8 6 6 8 10 11 10 10 10 10 10 10 9 8 6 5 5 5 4 4 4 4 3 2 2 3 3 2 2 3 3 4 4 5 4 4 4 4 3 3 4 4 4 4 3
7 5 7 9 9 7 9 7 10 12 12 13 12 11 11 10 10 8 7 6 5 5 5 5 5 4 4 3 3 3 2 3 3 2 3 4 4 5 5 5 4 4 4 3 3 4 4 4 4
3 5 7 8 7 6 8 8 6 10 11 13 13 12 11 11 11 9 8 6 6 5 5 5 5 5 4 4 4 3 3 3 2 3 4 3 4 4 5 5 4 4 4 4 4 4 4 3 4
7 7 6 7 8 9 7 7 4 7 9 9 11 12 12 11 11 10 9 8 7 6 5 5 5 5 5 4 5 5 5 4 4 3 3 2 3 4 6 5 4 4 4 4 4 4 4 4 4
9 9 7 8 8 6 4 7 2 3 2 4 8 10 12 12 11 11 10 9 8 7 6 5 6 5 5 5 5 5 4 3 4 3 3 3 3 3 5 5 5 4 4 4 4 3 4 4 4
9 10 7 6 6 4 6 6 2 4 3 3 6 9 11 11 10 10 10 9 8 7 6 5 6 5 5 5 5 4 3 2 3 4 3 3 3 4 5 5 5 5 5 5 4 3 3 3 4
8 8 6 8 7 7 5 4 5 5 5 6 8 9 10 10 10 9 9 8 8 7 6 6 6 5 5 5 5 5 4 4 4 3 3 4 4 4 4 5 5 5 5 5 5 3 4 4 4
5 5 6 8 7 7 6 7 3 6 6 7 8 9 10 10 9 9 8 8 7 7 6 6 6 5 5 5 4 4 4 4 4 3 5 4 4 5 4 5 5 5 5 5 5 4 4 4 3
7 7 7 7 7 8 7 1 5 3 5 6 7 8 10 10 10 9 8 7 7 7 6 6 6 5 5 5 4 4 4 4 3 3 4 4 4 4 4 4 5 5 5 5 4 5 5 5 5
5 5 7 7 7 8 7 2 6 5 5 6 7 9 9 10 9 9 9 8 7 6 6 6 5 5 4 4 4 4 3 3 3 4 4 4 4 4 4 4 5 5 5 5 5 5 5 5 5
Wind_Direction
228 230 236 239 234 223 185 122 108 114 97 81 81 83 78 45 28 73 107 137 134 133 131 137 127 123 122 122 125 130 134 136 137 138 139 139 138 137 135 131 128 127 125 124 123 123 125 128 130
227 219 229 236 242 206 156 127 118 90 92 104 98 98 93 77 62 93 122 132 136 132 138 136 128 127 125 123 124 129 133 136 137 138 139 139 139 138 137 134 132 129 129 130 131 131 133 135 139
217 233 239 229 234 225 131 117 108 105 113 128 111 82 71 74 82 104 125 135 133 131 134 126 135 130 128 127 127 130 133 135 137 138 139 139 139 138 138 137 135 133 133 135 137 139 142 147 148
211 210 226 233 205 150 107 122 123 129 120 120 122 101 83 48 73 120 131 135 134 136 135 130 139 134 133 132 132 132 133 134 136 138 139 138 139 139 140 140 139 138 139 141 143 146 152 155 156
229 223 211 210 190 138 143 136 155 152 130 125 121 108 87 62 98 122 134 139 138 136 133 133 137 137 136 136 134 133 132 131 133 135 136 136 137 139 142 143 144 145 147 148 150 154 162 167 167
210 223 214 196 168 149 140 154 172 151 136 131 127 115 92 105 117 127 134 140 138 135 133 132 138 139 138 136 134 132 130 129 131 132 133 134 136 139 143 146 148 152 155 157 160 165 171 177 180
228 218 217 189 164 155 132 149 170 151 141 127 133 117 116 127 128 132 134 137 134 133 134 140 146 145 140 133 133 131 129 130 131 132 133 137 140 145 148 151 154 159 168 173 178 183 189 192 196
254 224 202 187 176 145 133 141 129 138 114 106 138 136 138 140 138 135 132 131 130 132 137 141 145 147 151 147 140 136 133 133 135 137 141 149 160 165 163 185 162 179 192 199 201 201 204 209 210
241 227 193 177 169 139 145 147 117 110 120 107 79 91 118 134 140 139 136 133 131 128 132 138 141 144 149 144 138 145 143 137 151 152 151 183 190 177 180 138 123 187 206 214 217 216 218 221 213
226 216 153 120 139 140 144 142 138 150 138 122 110 105 122 137 142 142 137 135 132 130 130 130 137 146 152 143 144 156 158 148 172 146 166 197 164 207 248 113 147 209 220 220 221 228 226 233 222
220 186 119 136 129 139 137 130 147 156 141 138 135 133 135 136 138 134 127 124 121 119 111 111 123 137 142 140 147 141 141 139 146 130 163 171 197 194 221 193 178 205 220 228 206 222 238 243 252
176 138 137 129 132 146 134 129 121 104 103 116 127 133 135 137 137 132 128 124 119 112 110 113 118 124 112 110 122 131 128 126 122 121 154 148 199 256 287 268 295 260 260 273 266 258 254 263 258
168 137 128 136 138 129 128 120 107 104 110 117 124 131 132 131 125 121 118 116 115 114 114 113 110 107 102 100 100 111 110 115 110 103 89 30 298 301 321 307 307 295 303 280 279 279 286 275 263
142 136 135 137 130 135 131 125 122 117 127 127 128 130 130 125 121 120 119 116 113 114 112 110 107 109 116 118 114 108 113 112 109 96 76 21 349 350 310 284 298 307 303 311 302 302 287 273 281
147 145 141 143 144 145 143 129 126 133 138 136 136 131 126 123 120 118 117 116 116 112 106 107 108 105 113 116 120 119 110 103 90 84 72 40 8 354 315 306 296 321 312 304 291 295 281 272 271
169 172 156 147 160 172 205 147 134 146 150 145 142 136 130 123 120 116 114 112 107 101 99 98 104 109 112 104 97 89 80 82 74 64 67 49 25 1 324 329 341 333 308 307 304 295 293 291 287
185 183 157 148 171 176 205 147 143 160 161 154 150 145 140 132 120 110 107 106 102 101 102 99 93 94 98 104 101 92 82 73 70 60 52 49 32 9 355 353 354 320 316 316 305 315 302 297 298
174 169 164 161 163 187 185 150 150 168 174 165 158 153 150 142 128 115 105 101 100 102 103 104 102 87 95 102 104 98 91 87 78 67 51 45 37 22 358 5 2 332 334 330 326 310 299 294 298
171 174 163 142 146 191 179 163 164 173 183 177 170 165 161 149 133 124 118 109 102 99 98 94 93 95 97 109 120 105 96 84 74 66 51 42 33 23 9 355 11 351 356 339 323 307 291 285 299
184 182 160 140 145 197 176 173 175 183 192 187 180 176 169 155 144 136 129 125 117 111 110 103 96 95 95 98 99 89 89 82 74 68 57 37 33 18 17 1 359 8 342 344 338 326 312 304 301
195 198 172 156 151 179 185 189 189 190 196 196 191 184 177 169 160 152 147 138 127 117 109 98 91 93 88 104 120 125 133 129 95 73 62 39 28 28 21 14 8 358 348 1 343 335 323 313 307
186 180 181 172 191 186 210 223 187 190 197 202 196 188 182 173 165 158 152 140 126 117 110 102 94 86 82 91 86 84 76 79 68 49 54 49 42 29 26 16 11 359 356 1 343 358 324 313 307
150 162 190 200 219 219 207 249 175 181 205 205 195 188 181 175 164 157 150 138 129 123 116 109 102 91 79 73 82 83 75 77 75 62 62 45 55 40 31 22 11 0 358 3 351 344 332 320 316
154 167 177 213 229 231 218 244 215 181 209 199 183 180 173 167 160 156 148 142 135 128 118 114 108 96 86 76 71 70 71 62 55 48 48 48 57 44 34 23 12 1 3 0 352 343 335 334 328
196 203 206 214 221 229 187 240 255 119 165 186 174 168 165 162 159 158 153 147 140 129 118 113 106 96 87 81 75 72 70 72 61 37 53 30 38 39 31 15 6 1 357 350 347 342 339 332 327
209 238 254 258 247 217 188 234 114 95 101 139 144 145 152 156 154 156 152 147 139 130 124 114 103 94 86 82 77 72 62 56 61 43 28 34 26 31 18 9 6 1 356 354 350 342 346 339 325
215 233 275 271 264 262 226 193 151 132 135 132 136 140 145 147 148 148 146 142 136 128 121 111 104 96 86 83 89 82 68 54 55 56 38 41 32 27 19 11 11 10 7 0 346 358 350 341 327
264 240 235 253 259 259 239 230 194 159 157 148 148 147 143 142 143 140 137 134 129 126 121 112 105 97 93 94 89 82 73 64 56 47 48 36 27 22 11 11 13 13 11 5 352 354 4 347 343
199 216 240 259 268 268 259 217 61 123 147 152 151 148 145 146 146 140 133 132 130 129 126 119 110 102 94 86 82 75 65 59 50 46 44 34 23 15 12 14 12 12 12 7 4 6 2 359 360
247 242 238 254 252 260 275 94 77 107 126 136 138 139 140 140 137 134 133 134 134 130 123 115 110 101 92 85 79 78 71 62 51 48 36 29 22 15 18 16 14 15 17 14 13 10 9 7 6